Regional Weather Roundup
Issued by NWS

Home | Current Version | Previous Version | Text Only | Print | Product List | Glossary On
Versions: 1 2 3 4 5 6 7 8 9 10 11 12 13 14 15 16 17 18 19 20 21 22 23 24 25 26 27 28 29 30 31 32 33 34 35 36 37 38 39 40 41 42 43 44 45 46 47 48 49 50
000
ASUS44 KLIX 010210
RWRLA
LOUISIANA WEATHER ROUNDUP
NATIONAL WEATHER SERVICE NEW ORLEANS LA
900 PM CDT MON AUG 31 2015

NOTE: "FAIR" INDICATES FEW OR NO CLOUDS BELOW 12,000 FEET WITH NO
      SIGNIFICANT WEATHER AND/OR OBSTRUCTIONS TO VISIBILITY.
      SKY/WX - SKY CONDITION AND SIGNIFICANT WEATHER.
      TMP - AIR TEMPERATURE.    DP   - DEWPOINT TEMPERATURE.
      RH  - RELATIVE HUMIDITY.  PRES - PRESSURE.
      HX  - HEAT INDEX.         WCI  - WIND CHILL INDEX.

*  THESE STATIONS ARE NOT NWS OR FAA STATIONS AND ARE NOT UNDER
   NWS QUALITY CONTROL.

LAZ040-048-061>063-065-066-069-010300-
SOUTHEAST LOUISIANA

CITY           SKY/WX    TMP DP  RH WIND       PRES   REMARKS
N.O. AUDUBON     N/A     82  73  75 MISG        N/A
N.O. INTL ARPT MOCLDY    81  69  67 W9        30.03R
N.O. LAKEFRONT CLEAR     82  69  64 S6        30.04R
N.O. DOWNTOWN* FAIR      86  70  58 CALM      30.05R
RESERVE*       FAIR      82  72  72 CALM      30.04R
SLIDELL        PTCLDY    78  72  81 CALM      30.03R
BATON ROUGE    MOCLDY    79  74  84 W3        30.03R
BOOTHVILLE     CLEAR     81  72  74 SE5       30.05R
BELLE CHASSE   PTCLDY    76  72  87 W3        30.03R
BOGALUSA*      NOT AVBL
GALLIANO*      CLEAR     78  72  83 CALM      30.04R
NEW ROADS*     FAIR      78  73  86 S3        30.03R
GONZALES*      FAIR      79  73  83 CALM      30.02R
HAMMOND*       PTCLDY    79  68  69 CALM      30.05R
HOUMA*         CLOUDY    76  75  95 SE3       30.04R
PORT FOURCHON* CLEAR     84  72  65 CALM      30.05R

$$

LAZ041-044-053-054-010300-
SOUTHWEST LOUISIANA

CITY           SKY/WX    TMP DP  RH WIND       PRES   REMARKS
LAKE CHARLES   CLOUDY    79  74  84 SE3       29.99S
LAFAYETTE      CLOUDY    79  75  87 CALM      30.02R
PATTERSON      MOCLDY    77  72  83 CALM      30.04R
SALT POINT       N/A     78  75  90 CALM      30.01S
NEW IBERIA     CLOUDY    79  75  87 CALM      30.03S
CHENAULT AIRPK NOT AVBL

$$

LAZ027-028-010300-
CENTRAL LOUISIANA

CITY           SKY/WX    TMP DP  RH WIND       PRES   REMARKS
FORT POLK      MOCLDY    80  72  75 SE6       30.00S
ALEXANDRIA INT CLOUDY    80  72  76 CALM      30.00R
ALEXANDRIA     CLOUDY    80  71  74 CALM      30.02R

$$

LAZ001-002-010300-
NORTHWEST LOUISIANA

CITY           SKY/WX    TMP DP  RH WIND       PRES   REMARKS
SHREVEPORT     MOCLDY    79  66  64 CALM      29.99S
BARKSDALE AFB  MOCLDY    80  64  58 SE3       29.99S
DTN SHREVEPORT MOCLDY    81  65  58 S3        29.99S

$$

LAZ014-016-010300-
NORTHEAST LOUISIANA

CITY           SKY/WX    TMP DP  RH WIND       PRES   REMARKS
MONROE         MOCLDY    83  66  56 S6        30.01R
TALLULAH       PTCLDY    74  67  78 CALM      30.02R

$$



USA.gov is the U.S. government's official web portal to all federal, state and local government web resources and services.